| time (UTC) | temp F | wind direction | speed knots | gust knots | rain 1hr in | rain 24hr in | rain mn in | humidity % | barometer mb |
| 20260507204847 | 63 | 236 | 1.7 | 4.3 | 0.00 | 0.00 | 0.00 | 75 | 1011.3 |
| 20260507204615 | 63 | 236 | 1.7 | 4.3 | 0.00 | 0.00 | 0.00 | 75 | 1011.3 |
| 20260507203404 | 63 | 234 | 0.0 | 1.7 | 0.00 | 0.00 | 0.00 | 75 | 1011.1 |
| 20260507202404 | 63 | 234 | 1.7 | 3.5 | 0.00 | 0.00 | 0.00 | 75 | 1011.2 |
| 20260507201417 | 63 | 198 | 0.0 | 2.6 | 0.00 | 0.00 | 0.00 | 74 | 1011.1 |
| 20260507200404 | 64 | 195 | 0.0 | 0.0 | 0.00 | 0.00 | 0.00 | 74 | 1010.9 |
| 20260507195359 | 64 | 195 | 0.0 | 0.0 | 0.00 | 0.00 | 0.00 | 72 | 1010.7 |
| 20260507194400 | 65 | 195 | 0.0 | 0.0 | 0.00 | 0.00 | 0.00 | 69 | 1010.7 |
| 20260507193401 | 65 | 195 | 0.0 | 0.0 | 0.00 | 0.00 | 0.00 | 68 | 1010.5 |
| 20260507192401 | 66 | 195 | 0.0 | 0.0 | 0.00 | 0.00 | 0.00 | 66 | 1010.4 |
| 20260507191847 | 67 | 195 | 0.0 | 0.0 | 0.00 | 0.00 | 0.00 | 66 | 1010.2 |
| 20260507191613 | 67 | 195 | 0.0 | 0.0 | 0.00 | 0.00 | 0.00 | 66 | 1010.2 |
| 20260507190401 | 67 | 195 | 0.0 | 0.0 | 0.00 | 0.00 | 0.00 | 64 | 1010.1 |
| 20260507185855 | 68 | 195 | 0.0 | 0.0 | 0.00 | 0.00 | 0.00 | 63 | 1010.0 |
| 20260507185615 | 68 | 195 | 0.0 | 0.0 | 0.00 | 0.00 | 0.00 | 63 | 1010.0 |
| 20260507184401 | 68 | 195 | 0.9 | 2.6 | 0.00 | 0.00 | 0.00 | 62 | 1009.9 |
| 20260507183401 | 69 | 195 | 0.9 | 4.3 | 0.00 | 0.00 | 0.00 | 61 | 1009.9 |
| 20260507182402 | 69 | 190 | 1.7 | 4.3 | 0.00 | 0.00 | 0.00 | 59 | 1009.9 |
| 20260507181849 | 70 | 192 | 1.7 | 4.3 | 0.00 | 0.00 | 0.00 | 57 | 1009.8 |
| 20260507181614 | 70 | 192 | 1.7 | 4.3 | 0.00 | 0.00 | 0.00 | 57 | 1009.8 |
| 20260507180401 | 70 | 186 | 1.7 | 3.5 | 0.00 | 0.00 | 0.00 | 56 | 1009.7 |
| 20260507175401 | 70 | 216 | 0.9 | 3.5 | 0.00 | 0.00 | 0.00 | 54 | 1009.4 |
| 20260507174401 | 71 | 186 | 0.9 | 3.5 | 0.00 | 0.00 | 0.00 | 53 | 1009.2 |
| 20260507173404 | 72 | 285 | 0.9 | 2.6 | 0.00 | 0.00 | 0.00 | 49 | 1009.1 |
| 20260507172401 | 74 | 170 | 0.9 | 3.5 | 0.00 | 0.00 | 0.00 | 46 | 1009.1 |
| 20260507171843 | 75 | 228 | 1.7 | 5.2 | 0.00 | 0.00 | 0.00 | 45 | 1009.2 |
| 20260507171615 | 75 | 228 | 1.7 | 5.2 | 0.00 | 0.00 | 0.00 | 45 | 1009.2 |
| 20260507170403 | 75 | 196 | 1.7 | 5.2 | 0.00 | 0.00 | 0.00 | 46 | 1009.1 |
| 20260507165401 | 74 | 222 | 0.9 | 4.3 | 0.00 | 0.00 | 0.00 | 47 | 1009.1 |
| 20260507164838 | 74 | 173 | 1.7 | 3.5 | 0.00 | 0.00 | 0.00 | 47 | 1009.1 |
| 20260507164612 | 74 | 173 | 1.7 | 3.5 | 0.00 | 0.00 | 0.00 | 47 | 1009.1 |
| 20260507163837 | 74 | 238 | 1.7 | 3.5 | 0.00 | 0.00 | 0.00 | 47 | 1009.1 |
| 20260507163613 | 74 | 238 | 1.7 | 3.5 | 0.00 | 0.00 | 0.00 | 47 | 1009.1 |
| 20260507162402 | 74 | 185 | 2.6 | 5.2 | 0.00 | 0.00 | 0.00 | 48 | 1009.1 |
| 20260507161403 | 74 | 219 | 0.9 | 4.3 | 0.00 | 0.00 | 0.00 | 48 | 1009.0 |
| 20260507160401 | 74 | 308 | 1.7 | 7.0 | 0.00 | 0.00 | 0.00 | 49 | 1009.0 |
| 20260507155617 | 74 | 234 | 2.6 | 7.8 | 0.00 | 0.00 | 0.00 | 46 | 1009.1 |
| 20260507154844 | 73 | 285 | 1.7 | 7.0 | 0.00 | 0.00 | 0.00 | 51 | 1009.0 |
| 20260507154613 | 73 | 285 | 1.7 | 7.0 | 0.00 | 0.00 | 0.00 | 51 | 1009.0 |
| 20260507153401 | 74 | 278 | 2.6 | 6.1 | 0.00 | 0.00 | 0.00 | 51 | 1009.1 |
| 20260507152401 | 74 | 214 | 2.6 | 7.0 | 0.00 | 0.00 | 0.00 | 53 | 1009.2 |
| 20260507151403 | 73 | 189 | 1.7 | 7.0 | 0.00 | 0.00 | 0.00 | 52 | 1009.2 |
| 20260507150403 | 73 | 233 | 2.6 | 7.0 | 0.00 | 0.00 | 0.00 | 53 | 1009.2 |
| 20260507145613 | 72 | 275 | 2.6 | 7.0 | 0.00 | 0.00 | 0.00 | 54 | 1009.3 |
| 20260507144402 | 73 | 240 | 2.6 | 9.6 | 0.00 | 0.00 | 0.00 | 54 | 1009.3 |
| 20260507143359 | 73 | 294 | 1.7 | 6.1 | 0.00 | 0.00 | 0.00 | 53 | 1009.4 |
| 20260507142841 | 74 | 163 | 2.6 | 6.1 | 0.00 | 0.00 | 0.00 | 53 | 1009.5 |
| 20260507142610 | 74 | 163 | 2.6 | 6.1 | 0.00 | 0.00 | 0.00 | 53 | 1009.5 |
| 20260507141359 | 74 | 209 | 3.5 | 6.1 | 0.00 | 0.00 | 0.00 | 54 | 1009.4 |
| 20260507140846 | 74 | 244 | 3.5 | 8.7 | 0.00 | 0.00 | 0.00 | 52 | 1009.4 |
| 20260507140612 | 74 | 244 | 3.5 | 8.7 | 0.00 | 0.00 | 0.00 | 52 | 1009.4 |
| 20260507135401 | 73 | 181 | 2.6 | 7.0 | 0.00 | 0.00 | 0.00 | 53 | 1009.7 |
| 20260507134401 | 73 | 207 | 2.6 | 9.6 | 0.00 | 0.00 | 0.00 | 51 | 1009.8 |
| 20260507133400 | 72 | 182 | 2.6 | 9.6 | 0.00 | 0.00 | 0.00 | 53 | 1009.9 |
| 20260507132359 | 73 | 221 | 4.3 | 10.4 | 0.00 | 0.00 | 0.00 | 54 | 1010.0 |
| 20260507131357 | 73 | 219 | 1.7 | 7.8 | 0.00 | 0.00 | 0.00 | 56 | 1010.1 |
| 20260507130357 | 71 | 282 | 2.6 | 7.0 | 0.00 | 0.00 | 0.00 | 55 | 1010.1 |
| 20260507125355 | 72 | 213 | 5.2 | 9.6 | 0.00 | 0.00 | 0.00 | 53 | 1010.0 |
| 20260507124355 | 71 | 227 | 2.6 | 9.6 | 0.00 | 0.00 | 0.00 | 54 | 1010.1 |
| 20260507123836 | 72 | 209 | 2.6 | 8.7 | 0.00 | 0.00 | 0.00 | 54 | 1010.3 |
| 20260507123606 | 72 | 209 | 2.6 | 8.7 | 0.00 | 0.00 | 0.00 | 54 | 1010.3 |
| 20260507122839 | 71 | 229 | 2.6 | 7.8 | 0.00 | 0.00 | 0.00 | 54 | 1010.3 |
| 20260507122607 | 71 | 229 | 2.6 | 7.8 | 0.00 | 0.00 | 0.00 | 54 | 1010.3 |
| 20260507121353 | 70 | 251 | 2.6 | 8.7 | 0.00 | 0.00 | 0.00 | 55 | 1010.5 |
| 20260507120354 | 71 | 278 | 2.6 | 7.8 | 0.00 | 0.00 | 0.00 | 57 | 1010.5 |
| 20260507115354 | 71 | 346 | 3.5 | 7.8 | 0.00 | 0.00 | 0.00 | 55 | 1010.6 |
| 20260507114831 | 71 | 279 | 3.5 | 9.6 | 0.00 | 0.00 | 0.00 | 55 | 1010.5 |
| 20260507114605 | 71 | 279 | 3.5 | 9.6 | 0.00 | 0.00 | 0.00 | 55 | 1010.5 |
| 20260507113352 | 72 | 224 | 2.6 | 7.0 | 0.00 | 0.00 | 0.00 | 55 | 1010.7 |
| 20260507112351 | 70 | 306 | 2.6 | 7.8 | 0.00 | 0.00 | 0.00 | 55 | 1010.8 |
| 20260507111353 | 70 | 215 | 3.5 | 7.8 | 0.00 | 0.00 | 0.00 | 61 | 1010.9 |
| 20260507110850 | 69 | 196 | 3.5 | 7.8 | 0.00 | 0.00 | 0.00 | 59 | 1010.9 |
| 20260507110604 | 69 | 196 | 3.5 | 7.8 | 0.00 | 0.00 | 0.00 | 59 | 1010.9 |
| 20260507105350 | 69 | 230 | 3.5 | 7.0 | 0.00 | 0.00 | 0.00 | 61 | 1010.9 |
| 20260507104826 | 69 | 232 | 2.6 | 8.7 | 0.00 | 0.00 | 0.00 | 61 | 1011.0 |
| 20260507104601 | 69 | 232 | 2.6 | 8.7 | 0.00 | 0.00 | 0.00 | 61 | 1011.0 |
| 20260507103350 | 69 | 329 | 2.6 | 7.8 | 0.00 | 0.00 | 0.00 | 63 | 1011.1 |
| 20260507102349 | 69 | 236 | 2.6 | 7.0 | 0.00 | 0.00 | 0.00 | 59 | 1011.1 |
| 20260507101349 | 67 | 227 | 2.6 | 7.0 | 0.00 | 0.00 | 0.00 | 64 | 1011.3 |
| 20260507100349 | 67 | 306 | 1.7 | 6.1 | 0.00 | 0.00 | 0.00 | 63 | 1011.2 |
| 20260507095349 | 68 | 144 | 1.7 | 5.2 | 0.00 | 0.00 | 0.00 | 62 | 1011.3 |
| 20260507094601 | 67 | 281 | 1.7 | 5.2 | 0.00 | 0.00 | 0.00 | 64 | 1011.3 |
| 20260507093349 | 67 | 212 | 0.9 | 4.3 | 0.00 | 0.00 | 0.00 | 67 | 1011.3 |
| 20260507092350 | 66 | 314 | 1.7 | 5.2 | 0.00 | 0.00 | 0.00 | 66 | 1011.3 |
| 20260507091349 | 66 | 263 | 0.9 | 3.5 | 0.00 | 0.00 | 0.00 | 72 | 1011.3 |
| 20260507090832 | 65 | 168 | 1.7 | 4.3 | 0.00 | 0.00 | 0.00 | 72 | 1011.2 |
| 20260507090600 | 65 | 168 | 1.7 | 4.3 | 0.00 | 0.00 | 0.00 | 72 | 1011.2 |
| 20260507085349 | 64 | 183 | 0.9 | 7.0 | 0.00 | 0.00 | 0.00 | 78 | 1011.2 |
| 20260507084349 | 63 | 302 | 0.9 | 3.5 | 0.00 | 0.00 | 0.00 | 77 | 1011.3 |
| 20260507083828 | 60 | 313 | 0.9 | 3.5 | 0.00 | 0.00 | 0.00 | 82 | 1011.2 |
| 20260507083603 | 60 | 313 | 0.9 | 3.5 | 0.00 | 0.00 | 0.00 | 82 | 1011.2 |
| 20260507082349 | 58 | 246 | 0.9 | 2.6 | 0.00 | 0.00 | 0.00 | 84 | 1011.2 |
| 20260507081349 | 59 | 246 | 0.9 | 2.6 | 0.00 | 0.00 | 0.00 | 84 | 1011.2 |
| 20260507080349 | 59 | 248 | 0.9 | 2.6 | 0.00 | 0.00 | 0.00 | 83 | 1011.3 |
| 20260507075349 | 59 | 188 | 0.0 | 1.7 | 0.00 | 0.00 | 0.00 | 83 | 1011.2 |
| 20260507074349 | 60 | 317 | 0.9 | 3.5 | 0.00 | 0.00 | 0.00 | 82 | 1011.0 |
| 20260507073826 | 60 | 292 | 0.9 | 3.5 | 0.00 | 0.00 | 0.00 | 82 | 1010.9 |
| 20260507073604 | 60 | 292 | 0.9 | 3.5 | 0.00 | 0.00 | 0.00 | 82 | 1010.9 |
| 20260507072349 | 60 | 222 | 0.0 | 1.7 | 0.00 | 0.00 | 0.00 | 82 | 1010.8 |
| 20260507071358 | 59 | 222 | 0.0 | 1.7 | 0.00 | 0.00 | 0.00 | 82 | 1010.7 |
| 20260507070348 | 59 | 222 | 0.9 | 2.6 | 0.00 | 0.00 | 0.00 | 81 | 1010.7 |
| 20260507065350 | 59 | 242 | 0.9 | 3.5 | 0.00 | 0.00 | 0.00 | 82 | 1010.8 |
| 20260507064828 | 59 | 92 | 0.0 | 0.9 | 0.00 | 0.00 | 0.00 | 79 | 1010.7 |
| 20260507064603 | 59 | 92 | 0.0 | 0.9 | 0.00 | 0.00 | 0.00 | 79 | 1010.7 |
| 20260507063349 | 60 | 92 | 0.9 | 2.6 | 0.00 | 0.00 | 0.00 | 79 | 1010.5 |
| 20260507062350 | 59 | 94 | 0.0 | 2.6 | 0.00 | 0.00 | 0.00 | 82 | 1010.3 |
| 20260507061349 | 58 | 94 | 0.9 | 2.6 | 0.00 | 0.00 | 0.00 | 83 | 1010.3 |
| 20260507060827 | 57 | 94 | 0.0 | 1.7 | 0.00 | 0.00 | 0.00 | 83 | 1010.2 |
| 20260507060602 | 57 | 94 | 0.0 | 1.7 | 0.00 | 0.00 | 0.00 | 83 | 1010.2 |
| 20260507055349 | 57 | 95 | 0.9 | 2.6 | 0.00 | 0.00 | 0.00 | 84 | 1010.2 |
| 20260507054351 | 57 | 328 | 0.0 | 1.7 | 0.00 | 0.00 | 0.00 | 84 | 1010.1 |
| 20260507053349 | 57 | 321 | 0.0 | 0.9 | 0.00 | 0.00 | 0.00 | 85 | 1010.1 |
| 20260507052349 | 57 | 321 | 0.0 | 1.7 | 0.00 | 0.00 | 0.00 | 85 | 1010.0 |
| 20260507051350 | 56 | 18 | 0.0 | 1.7 | 0.00 | 0.00 | 0.00 | 86 | 1009.8 |
| 20260507050349 | 56 | 18 | 0.0 | 0.9 | 0.00 | 0.00 | 0.00 | 86 | 1009.7 |
| 20260507045348 | 56 | 18 | 0.9 | 2.6 | 0.00 | 0.00 | 0.00 | 86 | 1009.5 |
| 20260507044349 | 55 | 18 | 0.0 | 0.0 | 0.00 | 0.00 | 0.00 | 85 | 1009.5 |
| 20260507043349 | 55 | 18 | 0.9 | 2.6 | 0.00 | 0.00 | 0.00 | 85 | 1009.3 |
| 20260507042349 | 55 | 18 | 1.7 | 2.6 | 0.00 | 0.00 | 0.00 | 85 | 1009.3 |
| 20260507041348 | 55 | 19 | 0.0 | 1.7 | 0.00 | 0.00 | 0.00 | 85 | 1009.2 |
| 20260507040349 | 54 | 19 | 0.0 | 1.7 | 0.00 | 0.00 | 0.00 | 85 | 1009.1 |
| 20260507035349 | 55 | 19 | 0.9 | 2.6 | 0.00 | 0.00 | 0.00 | 85 | 1009.0 |
| 20260507034345 | 55 | 5 | 0.9 | 2.6 | 0.00 | 0.00 | 0.00 | 85 | 1009.0 |
| 20260507033342 | 55 | 5 | 0.0 | 2.6 | 0.00 | 0.00 | 0.00 | 85 | 1009.0 |
| 20260507032343 | 55 | 348 | 0.9 | 2.6 | 0.00 | 0.00 | 0.00 | 85 | 1008.9 |
| 20260507031340 | 55 | 321 | 0.0 | 1.7 | 0.00 | 0.00 | 0.00 | 84 | 1008.9 |
| 20260507030340 | 55 | 320 | 0.0 | 1.7 | 0.00 | 0.00 | 0.00 | 84 | 1008.9 |
| 20260507025340 | 55 | 320 | 0.9 | 2.6 | 0.00 | 0.00 | 0.00 | 84 | 1009.0 |
| 20260507024817 | 56 | 319 | 0.9 | 2.6 | 0.00 | 0.00 | 0.00 | 84 | 1008.9 |
| 20260507024556 | 56 | 319 | 0.9 | 2.6 | 0.00 | 0.00 | 0.00 | 84 | 1008.9 |
| 20260507023339 | 56 | 317 | 0.9 | 3.5 | 0.00 | 0.00 | 0.00 | 84 | 1008.9 |
| 20260507022333 | 56 | 17 | 1.7 | 4.3 | 0.00 | 0.00 | 0.00 | 84 | 1008.7 |
| 20260507021334 | 56 | 9 | 1.7 | 4.3 | 0.00 | 0.00 | 0.00 | 85 | 1008.6 |
| 20260507020814 | 56 | 355 | 1.7 | 3.5 | 0.00 | 0.00 | 0.00 | 85 | 1008.6 |
| 20260507020544 | 56 | 355 | 1.7 | 3.5 | 0.00 | 0.00 | 0.00 | 85 | 1008.6 |
| 20260507015811 | 56 | 324 | 2.6 | 5.2 | 0.00 | 0.00 | 0.00 | 85 | 1008.6 |
| 20260507015545 | 56 | 324 | 2.6 | 5.2 | 0.00 | 0.00 | 0.00 | 85 | 1008.6 |
| 20260507014333 | 56 | 340 | 2.6 | 4.3 | 0.00 | 0.00 | 0.00 | 85 | 1008.5 |
| 20260507013334 | 56 | 5 | 1.7 | 3.5 | 0.00 | 0.00 | 0.00 | 85 | 1008.6 |
| 20260507012333 | 56 | 340 | 1.7 | 4.3 | 0.00 | 0.00 | 0.00 | 86 | 1008.6 |
| 20260507011333 | 56 | 327 | 2.6 | 4.3 | 0.00 | 0.00 | 0.00 | 86 | 1008.6 |
| 20260507010545 | 56 | 334 | 2.6 | 0.0 | 0.00 | 0.00 | 0.00 | 86 | 1008.7 |
| 20260507005410 | 57 | 11 | 1.7 | 3.5 | 0.00 | 0.23 | 0.00 | 86 | 1008.7 |
| 20260507004409 | 56 | 336 | 1.7 | 4.3 | 0.00 | 0.23 | 0.00 | 86 | 1008.9 |
| 20260507003409 | 56 | 308 | 0.9 | 1.7 | 0.00 | 0.23 | 0.00 | 85 | 1008.8 |
| 20260507002846 | 56 | 298 | 1.7 | 3.5 | 0.00 | 0.23 | 0.00 | 85 | 1008.8 |
| 20260507002623 | 56 | 298 | 1.7 | 3.5 | 0.00 | 0.23 | 0.00 | 85 | 1008.8 |
| 20260507001618 | 56 | 286 | 0.9 | 1.7 | 0.00 | 0.23 | 0.00 | 85 | 1008.7 |
| 20260507000420 | 56 | 286 | 0.0 | 1.7 | 0.00 | 0.23 | 0.00 | 85 | 1008.7 |
| 20260506235406 | 56 | 291 | 1.7 | 3.5 | 0.00 | 0.23 | 0.00 | 85 | 1008.7 |
| 20260506234407 | 56 | 319 | 1.7 | 3.5 | 0.00 | 0.23 | 0.00 | 86 | 1008.7 |
| 20260506233406 | 56 | 259 | 0.9 | 2.6 | 0.00 | 0.23 | 0.00 | 86 | 1008.6 |
| 20260506232406 | 56 | 12 | 0.9 | 2.6 | 0.00 | 0.23 | 0.00 | 85 | 1008.5 |
| 20260506231408 | 56 | 13 | 0.9 | 3.5 | 0.00 | 0.23 | 0.00 | 85 | 1008.4 |
| 20260506230406 | 56 | 26 | 0.9 | 2.6 | 0.00 | 0.23 | 0.00 | 84 | 1008.3 |
| 20260506225406 | 56 | 27 | 0.9 | 2.6 | 0.00 | 0.23 | 0.00 | 83 | 1008.2 |
| 20260506224407 | 57 | 27 | 0.9 | 4.3 | 0.00 | 0.23 | 0.00 | 82 | 1008.1 |
| 20260506223407 | 57 | 49 | 3.5 | 7.0 | 0.00 | 0.23 | 0.00 | 82 | 1008.1 |
| 20260506222406 | 57 | 28 | 3.5 | 7.8 | 0.00 | 0.23 | 0.00 | 83 | 1008.1 |
| 20260506221406 | 57 | 58 | 1.7 | 4.3 | 0.00 | 0.23 | 0.00 | 85 | 1008.1 |
| 20260506220406 | 57 | 299 | 0.0 | 1.7 | 0.00 | 0.23 | 0.00 | 85 | 1008.2 |
| 20260506215403 | 57 | 299 | 0.0 | 1.7 | 0.00 | 0.23 | 0.23 | 85 | 1008.1 |
| 20260506214403 | 57 | 299 | 0.0 | 2.6 | 0.00 | 0.23 | 0.23 | 84 | 1008.2 |
| 20260506213404 | 58 | 299 | 1.7 | 4.3 | 0.00 | 0.23 | 0.23 | 84 | 1008.0 |
| 20260506212404 | 58 | 34 | 1.7 | 3.5 | 0.00 | 0.23 | 0.23 | 84 | 1008.0 |
| 20260506211403 | 58 | 44 | 1.7 | 3.5 | 0.00 | 0.23 | 0.23 | 84 | 1007.9 |
| 20260506210403 | 58 | 43 | 0.9 | 2.6 | 0.00 | 0.23 | 0.23 | 84 | 1007.9 |
| 20260506205403 | 58 | 46 | 1.7 | 4.3 | 0.00 | 0.23 | 0.23 | 84 | 1007.9 |